Volver al catálogo

OPS 0082

TRANSIT 13

ActivoNavegaciónPO
NORAD 2176·PAYLOAD·🇺🇸 United States

Lanzado May 19, 1966 desde Vandenberg Space Force Base

Loading…

Próximos Pases (próximas 24 horas)

TLE

ActualizadoSource: Space-Track

Época: Sep 14, 2026, 10:54 UTC

1 02176U 66041A   26257.45447732  .00000331  00000-0  19831-3 0  9993
2 02176  90.2227  85.4468 0063025 183.4697 176.6057 14.04364425 79965

Sigue OPS 0082 en tiempo real con AllMySat

Download on the App Store